STARLINK-3883, 52493

Orbit data source: Space-Track

STARLINK-3883, 52493 is a payload satellite owned by SpaceX/Seattle (US) in LEO that was launched on Fri, 06 May 2022 UTC via an FALCON 9 launch vehicle from the Air Force Eastern Test Range (AFETR). Payload-class satellites include a variety of spacecraft equipped with specific instruments for various scientific and technological missions. These include communications satellites like Starlink; space stations such as the ISS; scientific satellites like the Hubble; Earth observation satellites from companies like Planet Labs, Umbra, and HawkEye 360; GPS; miniature CubeSats for education and research; and military/defense satellites.

Loading next visibility...
Identifier
52493, 2022-049AU
Orbit
LEO
Country
Flag of USUS
Related business
Manufacturer
SpaceX/Seattle
Mission
Operational Commercial Communications
Bus & Motor
STARLINK, Unknown motor
Mass
297 kg wet, ~220 kg dry
Launch date (UTC)
2022-05-06 (4 years ago)
Launch vehicle
FALCON 9
Launch site
Air Force Eastern Test Range (AFETR)
Object type
Payload
Rocket body
Debris
Shape & HBR
Box + 1 Pan, 10.1 m
Radar Cross Section
13.562 m², Large (>1 m²)

Expand to show TLE details & history
Last TLE update: 1 day ago

TLE from 1 day ago
0 STARLINK-3883
1 52493U 22049AU  25348.44808449 -.00000338  00000-0 -31458-5 0  9995
2 52493  53.2170  71.7878 0001218  86.4076 273.7055 15.08832030199529
Epoch: 2025-12-14T10:45Z
TLE epoch observation values (Epoch: 2025-12-14T10:45:14.499Z)
Latitude
-0.00008°
Longitude
-172.88353°
Altitude
540.611 km
Speed
7.593 km/s
True Right ascension
04h 47m 09s
True Declination
0° 00' 00"
Sunlit
Object was in full shadow at epoch
Visualization orbit readout
Latitude
Unknown
Longitude
Unknown
Altitude
Unknown
Speed
Unknown
Apparent Right ascension
Unknown
Apparent Declination
Unknown
Sunlit
N/A
Visualization observer readout
Local Sidereal Time
18:10:30
Azimuth
Unknown
Elevation
Unknown
Doppler factor
Unknown
Orbital elements
Apogee altitude
540.855 km
Perigee altitude
539.17 km
Semi-major axis
6,918.15 km
Eccentricity
0.00012
Inclination
53.217°
RAAN
71.7878°
Arg. of periapsis
86.4076°
True anomaly
273.69157°
Mean anomaly
273.7055°
Eccentric anomaly
273.69854°
Mean motion
3.77188 °/min
Orbital period
95.44 mins
BSTAR
-0.0000031458
Loading maneuver chart data...
Computing Atmospheric mass density...
Loading historical data...
Loading historical data...
Loading historical data...
Loading historical data...
Loading historical data...
Loading historical data...
Loading historical data...

Documentation

Showing up to 5 results
|